SCP
0 0 0 0 0 0 0 0 0 0 0 -0 -0 -0 -0 0 0 0 0 0 0 0 0 0 0 0 0 0 0 0 0 0 0 0 0 0 0 0 0 0 0 0 0 0 0 0 0 0 0
0 0 0 0 0 0 0 0 0 0 -0 -0 -0 0 0 0 0 0 0 0 0 0 0 0 0 0 0 0 0 0 0 0 0 0 0 0 0 0 0 0 0 0 0 0 0 0 0 0 0
0 0 0 0 0 0 -0 0 0 0 -0 0 -0 0 0 0 0 0 0 0 0 0 0 0 0 0 0 0 0 0 0 0 0 0 0 0 0 0 0 0 0 0 0 0 0 0 0 0 0
0 0 0 0 0 0 0 0 0 -0 -0 -0 0 0 0 0 0 0 0 0 0 0 0 0 0 0 0 0 0 0 0 0 0 0 0 0 0 0 0 0 0 0 0 0 0 0 0 0 0
0 0 0 0 0 0 0 0 0 -0 0 0 0 0 0 0 0 0 0 0 0 0 0 0 0 0 0 0 0 0 0 0 0 0 0 0 0 0 0 0 0 0 0 0 0 0 0 0 0
0 0 0 0 0 0 0 0 0 0 0 0 0 0 0 0 0 0 0 0 0 0 0 0 0 0 0 0 0 0 0 0 0 0 0 0 0 0 0 0 0 0 0 0 0 0 0 0 0
0 0 0 0 0 0 0 0 -0 0 0 0 0 0 0 0 0 0 0 0 0 0 0 0 0 0 0 0 0 0 0 0 0 0 0 0 0 0 0 0 0 0 0 0 0 0 0 0 0
0 0 0 0 0 -0 0 0 0 0 0 0 0 0 0 0 0 0 0 0 0 0 0 0 0 0 0 0 0 0 0 0 0 0 0 0 0 0 0 0 0 0 0 0 0 0 0 0 0
0 0 0 -0 0 -0 0 0 0 0 0 0 0 0 0 -0 -0 0 0 0 0 0 0 0 0 0 0 0 0 0 0 0 0 0 0 0 0 0 0 0 0 0 0 0 0 0 0 0 0
0 0 -0 0 0 0 0 0 0 0 0 0 0 0 0 0 0 0 0 0 0 0 0 0 0 0 0 0 0 0 0 0 0 0 0 0 0 0 0 0 0 0 0 0 0 0 0 0 0
0 0 0 0 0 0 0 0 0 0 0 -0 -0 -0 -0 0 0 0 0 0 0 0 0 0 0 0 0 0 0 0 0 0 0 0 0 0 0 0 0 0 0 0 0 0 0 0 0 0 0
0 0 0 -0 0 0 0 0 0 -0 -0 -0 -0 0 0 0 0 0 0 0 0 0 0 0 0 0 0 0 0 0 0 0 0 0 0 0 0 0 0 0 0 0 0 0 0 0 0 0 0
0 0 0 0 0 0 0 0 -0 -0 -0 0 0 0 0 0 0 0 0 0 0 0 0 0 0 0 0 0 0 0 0 0 0 0 0 0 0 0 0 0 0 0 0 0 0 0 0 0 0
0 0 0 0 0 0 -0 -0 -0 -0 0 0 0 0 0 0 0 0 0 0 0 0 0 0 0 0 0 0 0 0 0 0 0 0 0 0 0 0 0 0 0 0 0 0 0 0 0 0 0
0 -0 -0 0 0 -0 0 -0 -0 0 0 0 0 0 0 0 0 0 0 0 0 0 0 0 0 0 0 0 0 0 0 0 0 0 0 0 0 0 0 0 0 0 0 0 0 0 0 0 0
-0 -0 -0 0 -0 0 0 -0 0 0 0 0 0 0 0 0 0 0 0 0 0 0 0 0 0 0 0 0 0 0 0 0 0 0 0 0 0 0 0 0 0 0 0 0 0 0 0 0 0
-0 0 0 -0 -0 -0 0 -0 0 0 0 0 0 0 0 0 0 0 0 0 0 0 0 0 0 0 0 0 0 0 0 0 0 0 0 0 0 0 0 0 0 0 0 0 0 0 0 0 0
0 0 -0 -0 -0 -0 0 -0 0 0 0 0 0 0 0 0 0 0 0 0 0 0 0 0 0 0 0 0 0 0 0 0 0 0 0 0 0 0 0 0 0 0 0 0 0 0 0 0 0
0 0 -0 0 0 -0 -0 0 0 0 0 0 0 0 0 0 0 0 0 0 0 0 0 0 0 0 0 0 0 0 0 0 0 0 0 0 0 0 0 0 0 0 0 0 0 0 0 0 0
0 -0 0 0 -0 -0 -0 0 0 0 0 0 0 0 0 0 0 0 0 0 0 0 0 0 0 0 0 0 0 0 0 0 0 0 0 0 0 0 0 0 0 0 0 0 0 0 0 0 0
-0 -0 -0 -0 -0 0 -0 0 0 0 0 0 0 0 0 0 0 0 0 0 0 0 0 0 0 0 0 0 0 0 0 0 0 0 0 0 0 0 0 0 0 0 0 0 0 0 0 0 0
-0 -0 -0 -0 -0 0 0 0 0 0 0 0 0 0 0 0 0 0 0 0 0 0 0 0 0 0 0 0 0 0 0 0 0 0 0 0 0 0 0 0 0 0 0 0 0 0 0 0 0
-0 0 0 0 0 0 0 0 0 0 0 0 0 0 0 0 0 0 0 0 0 0 0 0 0 0 0 0 0 0 0 0 0 0 0 0 0 0 0 0 0 0 0 0 0 0 0 0 0
-0 0 0 0 0 0 0 0 0 0 0 0 0 0 0 0 0 0 0 0 0 0 0 0 0 0 0 0 0 0 0 0 0 0 0 0 0 0 0 0 0 0 0 0 0 0 0 0 0
0 0 -0 -0 0 0 0 0 0 0 0 0 0 0 0 0 0 0 0 0 0 0 0 0 0 0 0 0 0 0 0 0 0 0 0 0 0 0 0 0 0 0 0 0 0 0 0 0 0
0 0 0 -0 0 0 0 0 0 0 0 0 0 0 0 0 0 0 0 0 0 0 0 0 0 0 0 0 0 0 0 0 0 0 0 0 0 0 0 0 0 0 0 0 0 0 0 0 0
0 0 0 0 0 0 0 0 0 0 0 0 0 0 0 0 0 0 0 0 0 0 0 0 0 0 0 0 0 0 0 0 0 0 0 0 0 0 0 0 0 0 0 0 0 0 0 0 0
0 0 0 0 0 0 0 0 0 0 0 0 0 0 0 0 0 0 0 0 0 0 0 0 0 0 0 0 0 0 0 0 0 0 0 0 0 0 0 0 0 0 0 0 0 0 0 0 0
0 0 0 0 0 0 0 0 0 0 0 0 0 0 0 0 0 0 0 0 0 0 0 0 0 0 0 0 0 0 0 0 0 0 0 0 0 0 0 0 0 0 0 0 0 0 0 0 0
0 0 0 0 0 0 0 0 0 0 0 0 0 0 0 0 0 0 0 0 0 0 0 0 0 0 0 0 0 0 0 0 0 0 0 0 0 0 0 0 0 0 0 0 0 0 0 0 0
Wind_Speed_500mb
3 1 5 6 8 10 3 3 4 5 2 3 8 7 9 7 2 5 20 21 14 4 6 7 8 12 15 19 20 21 23 26 29 31 34 37 39 40 40 41 40 38 37 36 34 30 30 35 34
2 6 9 7 9 6 6 4 4 2 15 20 14 8 5 3 4 8 21 20 14 10 7 7 10 17 23 31 28 28 31 35 38 40 40 41 41 42 43 43 42 41 40 37 34 31 32 35 36
2 6 6 8 7 8 8 4 4 4 29 1 6 6 5 7 8 17 17 19 15 13 11 12 21 24 29 30 31 35 38 40 42 43 43 43 43 41 42 41 39 39 39 37 34 33 33 35 38
4 6 12 8 5 2 3 5 5 12 8 2 9 8 6 8 11 16 16 20 17 13 15 18 25 29 32 37 40 40 38 37 36 35 35 34 36 35 36 38 37 37 36 32 31 32 34 34 34
4 7 9 8 0 2 3 5 16 5 4 4 2 4 2 10 14 18 22 21 18 15 20 25 28 32 37 41 38 36 32 32 33 36 35 35 36 35 35 38 35 34 35 32 32 31 30 30 31
5 6 8 5 3 2 5 4 7 1 5 6 4 13 6 11 17 22 23 22 19 17 23 30 35 37 39 39 36 34 34 35 38 35 35 35 35 37 36 36 36 37 34 33 33 32 36 40 41
10 7 5 8 5 5 5 1 4 5 3 1 8 5 5 15 24 22 22 25 23 25 29 33 34 34 38 38 35 35 36 38 42 43 41 39 36 36 37 36 35 34 32 33 34 37 39 42 44
8 10 6 2 8 8 1 3 1 2 3 4 5 8 8 7 24 26 29 31 32 32 35 35 29 33 35 36 37 36 37 39 40 42 40 36 34 33 32 32 33 35 36 38 41 44 45 47 49
6 9 4 8 11 7 1 3 5 3 7 9 12 13 12 10 25 32 37 40 39 36 35 31 31 36 33 33 34 34 35 38 39 38 36 33 31 32 33 36 38 40 43 45 48 51 55 57 58
12 7 11 1 2 4 5 3 6 6 7 12 21 26 24 22 30 38 43 43 41 38 36 33 35 37 33 33 33 33 32 35 36 36 36 35 35 36 39 41 44 47 50 51 54 56 60 61 64
7 6 5 3 1 1 3 5 7 4 11 32 25 26 30 31 31 38 41 43 41 40 38 38 39 38 34 33 32 31 32 33 35 37 37 38 39 41 43 46 50 53 57 58 60 62 65 68 69
9 8 5 4 2 2 4 11 11 23 34 31 26 25 30 38 40 40 40 41 43 40 39 39 41 39 37 34 32 31 32 33 34 36 40 42 43 46 49 52 55 59 62 65 68 71 72 73 73
7 2 2 1 3 9 13 18 19 42 47 37 37 34 38 41 39 38 38 40 41 40 39 43 41 39 37 32 33 33 33 36 38 39 40 44 49 52 55 56 59 62 67 71 76 78 81 82 82
5 5 2 3 8 13 6 12 7 18 11 27 43 42 38 40 39 37 41 40 38 38 40 43 42 39 35 35 34 34 36 38 39 41 42 45 50 54 59 63 67 69 73 79 81 82 83 83 81
5 6 7 4 9 7 14 13 18 32 25 29 35 38 40 40 37 40 34 35 35 37 38 39 40 37 35 36 35 34 37 40 41 43 46 47 50 55 60 63 67 71 77 79 80 83 82 81 81
10 9 7 1 16 2 5 18 11 13 20 31 31 37 39 37 40 37 36 36 36 35 33 36 37 37 36 36 35 37 39 40 42 44 48 50 53 55 59 65 69 72 76 79 78 78 80 81 84
15 3 5 15 11 9 3 22 11 13 27 40 38 40 41 42 44 42 38 38 35 31 32 35 35 37 38 36 36 38 41 43 45 46 48 50 52 57 61 67 70 72 74 74 75 78 77 79 78
6 7 8 12 10 7 13 43 33 46 39 46 42 38 43 45 47 41 38 36 33 31 34 34 34 35 36 36 38 42 45 46 47 49 51 53 57 62 66 69 71 73 75 76 76 74 70 69 63
4 4 9 10 6 15 3 29 36 36 8 13 12 13 27 37 33 33 39 38 36 34 33 33 32 31 34 38 45 50 51 50 52 53 54 60 66 68 70 72 74 74 74 70 69 66 69 72 68
3 6 10 14 3 5 15 40 14 5 2 7 15 16 4 7 12 18 28 34 34 34 33 31 31 33 37 42 46 49 51 54 55 56 60 64 66 68 69 71 71 70 70 71 72 75 78 65 57
2 4 6 10 19 2 17 17 8 1 3 5 6 4 8 1 6 7 16 25 31 31 32 31 33 36 39 42 45 47 54 58 61 65 67 67 67 68 67 65 64 65 66 67 68 70 66 73 67
6 3 2 10 11 6 12 9 13 5 5 5 4 1 3 3 2 7 14 22 28 33 34 33 34 35 39 43 48 54 56 59 62 64 67 68 67 65 61 58 59 57 57 59 59 47 62 64 72
7 2 3 4 6 8 8 6 16 4 11 15 10 6 2 3 6 9 14 23 30 31 31 31 32 35 41 45 50 52 56 59 63 66 68 67 65 61 59 56 53 51 53 55 56 58 59 59 58
9 6 11 7 5 5 3 7 14 8 11 1 6 14 13 16 13 12 14 18 22 26 28 29 33 38 42 45 49 54 58 62 65 67 67 65 63 61 56 50 48 51 52 54 58 60 60 58 55
11 9 9 12 10 9 5 2 23 12 8 8 16 31 26 19 11 12 19 22 24 25 26 31 35 38 41 46 51 55 60 62 64 65 64 64 65 63 55 48 49 52 53 55 57 61 60 56 53
7 7 9 8 6 11 4 12 12 8 8 14 18 26 25 19 13 20 25 25 26 27 28 30 33 38 44 49 53 57 59 61 61 62 62 62 63 60 52 49 51 52 54 56 58 60 58 52 48
3 7 3 12 4 6 7 16 22 7 14 18 24 28 31 26 22 28 28 28 27 25 25 30 36 42 47 50 53 57 59 61 62 62 62 63 62 58 52 50 52 53 55 58 59 61 59 50 39
5 6 6 6 5 10 12 13 14 14 17 14 21 44 41 35 29 31 30 26 21 22 27 33 39 43 46 49 54 59 62 62 63 64 64 65 62 57 52 51 53 56 57 60 61 61 56 45 35
3 3 7 5 6 8 6 15 16 19 12 15 28 51 47 38 29 28 26 23 20 22 30 36 42 43 46 50 57 62 63 63 64 65 65 65 62 58 53 52 55 58 59 62 64 60 51 38 41
1 6 8 8 12 6 3 20 7 11 8 15 34 37 41 32 28 27 23 23 19 29 29 37 40 42 47 54 60 62 64 66 67 68 67 66 64 59 55 54 56 59 60 62 63 61 44 40 52
Wind_Direction_500mb
271 279 150 134 61 65 35 59 271 164 84 56 98 108 129 65 94 207 149 171 179 202 317 327 354 345 346 341 337 332 327 321 316 312 310 309 309 309 309 308 310 310 310 311 316 328 326 312 306
250 131 125 97 87 75 278 268 119 305 144 120 96 86 59 117 134 166 159 178 195 227 251 271 330 320 329 321 315 316 313 309 306 303 301 300 301 301 302 303 305 305 305 306 310 324 324 312 305
140 107 85 86 103 148 185 195 186 105 154 121 105 84 102 139 155 167 174 181 192 215 223 292 314 308 299 300 306 307 305 303 300 300 301 301 301 301 299 301 302 303 304 305 314 322 324 318 308
190 95 68 74 71 287 206 135 155 133 180 184 132 73 113 152 172 192 182 185 195 236 271 290 292 291 295 301 305 306 306 306 304 303 301 303 301 301 302 300 302 304 308 322 327 324 323 324 321
82 70 63 75 276 285 45 241 196 189 117 114 129 152 183 202 200 196 196 207 217 246 265 286 294 298 301 303 308 309 308 306 304 305 310 303 303 299 296 302 308 305 302 312 321 324 328 326 324
55 64 76 153 245 290 256 271 170 187 148 102 82 145 220 204 203 194 200 219 233 251 271 279 291 299 304 302 305 308 314 314 313 316 313 309 305 302 301 301 302 302 303 304 304 304 302 302 303
106 70 121 128 160 308 230 44 182 188 79 237 155 151 234 206 187 197 210 228 242 252 271 284 291 301 308 308 305 310 314 318 317 316 314 311 306 304 305 306 303 303 306 306 306 305 305 304 306
87 92 92 120 175 242 163 188 175 58 242 197 225 217 234 241 196 202 221 234 242 254 266 274 287 306 305 304 305 309 311 310 309 310 312 311 310 309 308 307 306 306 306 307 307 304 303 302 301
71 64 126 207 161 268 16 28 360 300 242 226 228 245 263 264 211 207 225 239 247 252 262 275 288 303 303 301 299 303 304 305 307 309 311 309 305 302 301 302 303 305 305 304 303 303 302 302 301
60 94 195 99 58 350 26 44 290 266 270 249 250 251 250 240 229 224 231 241 249 256 267 278 291 298 299 295 297 299 303 303 305 308 308 307 307 306 306 307 306 304 303 302 301 301 300 299 300
30 110 121 41 93 326 305 264 261 242 270 247 242 252 234 227 228 225 236 243 256 262 270 281 289 295 296 295 299 301 303 304 305 304 302 303 303 303 303 304 305 305 304 303 303 303 303 304 303
87 54 74 196 293 313 259 290 273 230 245 262 261 255 244 229 231 235 236 241 251 265 271 278 288 292 293 296 298 300 301 302 300 299 299 300 302 305 305 305 306 306 305 307 309 308 307 306 305
70 160 78 128 330 303 281 260 252 259 259 256 257 249 246 236 238 237 238 245 252 256 270 284 287 287 289 297 300 303 305 303 301 301 302 303 305 306 307 307 309 310 310 310 310 310 309 308 307
104 118 85 326 313 286 293 275 335 271 247 244 243 249 245 241 239 236 241 250 254 263 278 282 284 288 294 297 299 300 302 302 301 303 304 306 305 306 307 309 309 307 308 309 310 309 307 305 304
99 12 346 324 315 303 327 278 230 255 248 262 243 244 238 241 239 250 267 265 264 271 279 285 288 288 292 294 299 305 306 304 305 305 305 306 307 308 309 308 309 310 309 309 310 310 311 309 309
41 49 4 231 353 298 19 269 263 218 273 257 250 255 244 240 247 255 256 256 260 271 284 289 289 288 293 298 302 307 308 307 306 305 304 308 309 308 307 307 308 309 311 312 313 313 313 311 310
15 232 285 314 51 302 218 278 246 286 296 271 275 274 249 245 246 249 247 249 259 273 286 290 292 292 293 297 305 312 313 311 305 305 309 308 307 310 310 310 313 315 316 317 317 316 315 315 313
303 328 297 250 332 337 271 269 288 302 298 280 277 260 250 251 255 257 250 250 259 270 280 286 295 298 294 297 306 311 313 309 309 312 313 313 315 316 317 319 320 320 319 319 317 317 316 314 315
297 273 275 264 12 335 282 284 296 306 324 339 334 285 258 254 257 250 244 244 251 265 279 290 298 297 298 300 303 309 317 318 320 319 320 321 322 323 323 321 321 320 320 321 322 321 318 316 318
226 293 291 288 314 5 337 297 277 251 246 344 340 8 322 234 234 242 232 240 250 262 277 290 294 291 294 300 309 317 319 319 318 318 319 321 322 322 322 321 320 320 321 321 320 318 317 316 313
233 262 335 269 324 204 319 297 332 347 52 15 6 6 33 319 265 248 231 244 256 269 276 281 280 286 294 303 311 313 313 316 321 323 323 324 324 323 320 320 320 321 319 318 316 315 314 312 313
330 116 303 305 21 288 18 279 312 334 264 224 247 54 47 74 171 224 240 251 259 264 267 270 276 288 298 308 313 316 320 322 322 323 325 325 324 323 325 325 323 322 323 322 322 318 311 305 304
247 270 278 85 83 12 357 76 267 322 262 234 208 192 146 179 205 234 253 255 258 259 261 267 278 291 300 306 311 316 319 322 323 323 323 323 325 328 330 328 329 329 330 329 325 324 322 319 313
333 19 27 62 92 16 274 87 281 237 218 199 198 207 207 210 210 243 265 264 258 258 264 276 287 294 301 309 316 320 321 323 324 324 324 326 328 330 331 330 331 332 330 330 330 329 326 321 317
25 41 346 359 8 236 236 28 247 261 246 225 226 212 214 206 225 269 274 267 264 268 277 287 294 303 311 317 319 322 324 325 325 325 326 327 329 331 331 329 329 328 330 330 330 328 327 326 321
12 98 140 254 275 283 10 236 249 222 267 250 246 219 214 210 260 281 277 271 271 279 287 296 308 312 317 320 322 323 324 324 325 325 326 328 329 328 325 324 323 326 330 330 329 326 325 322 318
343 48 128 100 73 22 266 282 291 271 271 250 235 226 219 227 264 285 279 274 277 284 293 305 312 317 320 319 320 322 325 326 328 328 327 328 327 324 318 318 320 325 329 327 326 326 324 322 318
118 155 39 11 333 290 286 275 238 290 273 252 249 238 227 233 262 287 277 273 274 288 304 313 315 315 316 320 324 327 328 330 329 328 328 326 324 320 315 316 319 322 325 324 324 325 327 320 316
39 30 33 122 146 211 289 264 216 237 227 251 248 247 241 237 268 289 278 269 276 297 309 312 313 314 319 325 328 328 330 329 328 326 326 325 323 320 315 316 317 319 321 321 321 323 326 319 317
290 181 162 121 279 232 158 269 237 256 248 266 276 270 241 250 275 286 264 264 273 297 307 308 310 317 325 327 328 330 329 328 327 327 327 326 325 321 316 316 316 317 318 318 318 319 322 322 327
Wind_Speed_850mb
3 1 5 6 8 10 3 3 4 5 2 3 8 7 9 7 2 5 20 21 14 4 6 7 8 12 15 19 20 21 23 26 29 31 34 37 39 40 40 41 40 38 37 36 34 30 30 35 34
2 6 9 7 9 6 6 4 4 2 15 20 14 8 5 3 4 8 21 20 14 10 7 7 10 17 23 31 28 28 31 35 38 40 40 41 41 42 43 43 42 41 40 37 34 31 32 35 36
2 6 6 8 7 8 8 4 4 4 29 1 6 6 5 7 8 17 17 19 15 13 11 12 21 24 29 30 31 35 38 40 42 43 43 43 43 41 42 41 39 39 39 37 34 33 33 35 38
4 6 12 8 5 2 3 5 5 12 8 2 9 8 6 8 11 16 16 20 17 13 15 18 25 29 32 37 40 40 38 37 36 35 35 34 36 35 36 38 37 37 36 32 31 32 34 34 34
4 7 9 8 0 2 3 5 16 5 4 4 2 4 2 10 14 18 22 21 18 15 20 25 28 32 37 41 38 36 32 32 33 36 35 35 36 35 35 38 35 34 35 32 32 31 30 30 31
5 6 8 5 3 2 5 4 7 1 5 6 4 13 6 11 17 22 23 22 19 17 23 30 35 37 39 39 36 34 34 35 38 35 35 35 35 37 36 36 36 37 34 33 33 32 36 40 41
10 7 5 8 5 5 5 1 4 5 3 1 8 5 5 15 24 22 22 25 23 25 29 33 34 34 38 38 35 35 36 38 42 43 41 39 36 36 37 36 35 34 32 33 34 37 39 42 44
8 10 6 2 8 8 1 3 1 2 3 4 5 8 8 7 24 26 29 31 32 32 35 35 29 33 35 36 37 36 37 39 40 42 40 36 34 33 32 32 33 35 36 38 41 44 45 47 49
6 9 4 8 11 7 1 3 5 3 7 9 12 13 12 10 25 32 37 40 39 36 35 31 31 36 33 33 34 34 35 38 39 38 36 33 31 32 33 36 38 40 43 45 48 51 55 57 58
12 7 11 1 2 4 5 3 6 6 7 12 21 26 24 22 30 38 43 43 41 38 36 33 35 37 33 33 33 33 32 35 36 36 36 35 35 36 39 41 44 47 50 51 54 56 60 61 64
7 6 5 3 1 1 3 5 7 4 11 32 25 26 30 31 31 38 41 43 41 40 38 38 39 38 34 33 32 31 32 33 35 37 37 38 39 41 43 46 50 53 57 58 60 62 65 68 69
9 8 5 4 2 2 4 11 11 23 34 31 26 25 30 38 40 40 40 41 43 40 39 39 41 39 37 34 32 31 32 33 34 36 40 42 43 46 49 52 55 59 62 65 68 71 72 73 73
7 2 2 1 3 9 13 18 19 42 47 37 37 34 38 41 39 38 38 40 41 40 39 43 41 39 37 32 33 33 33 36 38 39 40 44 49 52 55 56 59 62 67 71 76 78 81 82 82
5 5 2 3 8 13 6 12 7 18 11 27 43 42 38 40 39 37 41 40 38 38 40 43 42 39 35 35 34 34 36 38 39 41 42 45 50 54 59 63 67 69 73 79 81 82 83 83 81
5 6 7 4 9 7 14 13 18 32 25 29 35 38 40 40 37 40 34 35 35 37 38 39 40 37 35 36 35 34 37 40 41 43 46 47 50 55 60 63 67 71 77 79 80 83 82 81 81
10 9 7 1 16 2 5 18 11 13 20 31 31 37 39 37 40 37 36 36 36 35 33 36 37 37 36 36 35 37 39 40 42 44 48 50 53 55 59 65 69 72 76 79 78 78 80 81 84
15 3 5 15 11 9 3 22 11 13 27 40 38 40 41 42 44 42 38 38 35 31 32 35 35 37 38 36 36 38 41 43 45 46 48 50 52 57 61 67 70 72 74 74 75 78 77 79 78
6 7 8 12 10 7 13 43 33 46 39 46 42 38 43 45 47 41 38 36 33 31 34 34 34 35 36 36 38 42 45 46 47 49 51 53 57 62 66 69 71 73 75 76 76 74 70 69 63
4 4 9 10 6 15 3 29 36 36 8 13 12 13 27 37 33 33 39 38 36 34 33 33 32 31 34 38 45 50 51 50 52 53 54 60 66 68 70 72 74 74 74 70 69 66 69 72 68
3 6 10 14 3 5 15 40 14 5 2 7 15 16 4 7 12 18 28 34 34 34 33 31 31 33 37 42 46 49 51 54 55 56 60 64 66 68 69 71 71 70 70 71 72 75 78 65 57
2 4 6 10 19 2 17 17 8 1 3 5 6 4 8 1 6 7 16 25 31 31 32 31 33 36 39 42 45 47 54 58 61 65 67 67 67 68 67 65 64 65 66 67 68 70 66 73 67
6 3 2 10 11 6 12 9 13 5 5 5 4 1 3 3 2 7 14 22 28 33 34 33 34 35 39 43 48 54 56 59 62 64 67 68 67 65 61 58 59 57 57 59 59 47 62 64 72
7 2 3 4 6 8 8 6 16 4 11 15 10 6 2 3 6 9 14 23 30 31 31 31 32 35 41 45 50 52 56 59 63 66 68 67 65 61 59 56 53 51 53 55 56 58 59 59 58
9 6 11 7 5 5 3 7 14 8 11 1 6 14 13 16 13 12 14 18 22 26 28 29 33 38 42 45 49 54 58 62 65 67 67 65 63 61 56 50 48 51 52 54 58 60 60 58 55
11 9 9 12 10 9 5 2 23 12 8 8 16 31 26 19 11 12 19 22 24 25 26 31 35 38 41 46 51 55 60 62 64 65 64 64 65 63 55 48 49 52 53 55 57 61 60 56 53
7 7 9 8 6 11 4 12 12 8 8 14 18 26 25 19 13 20 25 25 26 27 28 30 33 38 44 49 53 57 59 61 61 62 62 62 63 60 52 49 51 52 54 56 58 60 58 52 48
3 7 3 12 4 6 7 16 22 7 14 18 24 28 31 26 22 28 28 28 27 25 25 30 36 42 47 50 53 57 59 61 62 62 62 63 62 58 52 50 52 53 55 58 59 61 59 50 39
5 6 6 6 5 10 12 13 14 14 17 14 21 44 41 35 29 31 30 26 21 22 27 33 39 43 46 49 54 59 62 62 63 64 64 65 62 57 52 51 53 56 57 60 61 61 56 45 35
3 3 7 5 6 8 6 15 16 19 12 15 28 51 47 38 29 28 26 23 20 22 30 36 42 43 46 50 57 62 63 63 64 65 65 65 62 58 53 52 55 58 59 62 64 60 51 38 41
1 6 8 8 12 6 3 20 7 11 8 15 34 37 41 32 28 27 23 23 19 29 29 37 40 42 47 54 60 62 64 66 67 68 67 66 64 59 55 54 56 59 60 62 63 61 44 40 52
Wind_Direction_850mb
271 279 150 134 61 65 35 59 271 164 84 56 98 108 129 65 94 207 149 171 179 202 317 327 354 345 346 341 337 332 327 321 316 312 310 309 309 309 309 308 310 310 310 311 316 328 326 312 306
250 131 125 97 87 75 278 268 119 305 144 120 96 86 59 117 134 166 159 178 195 227 251 271 330 320 329 321 315 316 313 309 306 303 301 300 301 301 302 303 305 305 305 306 310 324 324 312 305
140 107 85 86 103 148 185 195 186 105 154 121 105 84 102 139 155 167 174 181 192 215 223 292 314 308 299 300 306 307 305 303 300 300 301 301 301 301 299 301 302 303 304 305 314 322 324 318 308
190 95 68 74 71 287 206 135 155 133 180 184 132 73 113 152 172 192 182 185 195 236 271 290 292 291 295 301 305 306 306 306 304 303 301 303 301 301 302 300 302 304 308 322 327 324 323 324 321
82 70 63 75 276 285 45 241 196 189 117 114 129 152 183 202 200 196 196 207 217 246 265 286 294 298 301 303 308 309 308 306 304 305 310 303 303 299 296 302 308 305 302 312 321 324 328 326 324
55 64 76 153 245 290 256 271 170 187 148 102 82 145 220 204 203 194 200 219 233 251 271 279 291 299 304 302 305 308 314 314 313 316 313 309 305 302 301 301 302 302 303 304 304 304 302 302 303
106 70 121 128 160 308 230 44 182 188 79 237 155 151 234 206 187 197 210 228 242 252 271 284 291 301 308 308 305 310 314 318 317 316 314 311 306 304 305 306 303 303 306 306 306 305 305 304 306
87 92 92 120 175 242 163 188 175 58 242 197 225 217 234 241 196 202 221 234 242 254 266 274 287 306 305 304 305 309 311 310 309 310 312 311 310 309 308 307 306 306 306 307 307 304 303 302 301
71 64 126 207 161 268 16 28 360 300 242 226 228 245 263 264 211 207 225 239 247 252 262 275 288 303 303 301 299 303 304 305 307 309 311 309 305 302 301 302 303 305 305 304 303 303 302 302 301
60 94 195 99 58 350 26 44 290 266 270 249 250 251 250 240 229 224 231 241 249 256 267 278 291 298 299 295 297 299 303 303 305 308 308 307 307 306 306 307 306 304 303 302 301 301 300 299 300
30 110 121 41 93 326 305 264 261 242 270 247 242 252 234 227 228 225 236 243 256 262 270 281 289 295 296 295 299 301 303 304 305 304 302 303 303 303 303 304 305 305 304 303 303 303 303 304 303
87 54 74 196 293 313 259 290 273 230 245 262 261 255 244 229 231 235 236 241 251 265 271 278 288 292 293 296 298 300 301 302 300 299 299 300 302 305 305 305 306 306 305 307 309 308 307 306 305
70 160 78 128 330 303 281 260 252 259 259 256 257 249 246 236 238 237 238 245 252 256 270 284 287 287 289 297 300 303 305 303 301 301 302 303 305 306 307 307 309 310 310 310 310 310 309 308 307
104 118 85 326 313 286 293 275 335 271 247 244 243 249 245 241 239 236 241 250 254 263 278 282 284 288 294 297 299 300 302 302 301 303 304 306 305 306 307 309 309 307 308 309 310 309 307 305 304
99 12 346 324 315 303 327 278 230 255 248 262 243 244 238 241 239 250 267 265 264 271 279 285 288 288 292 294 299 305 306 304 305 305 305 306 307 308 309 308 309 310 309 309 310 310 311 309 309
41 49 4 231 353 298 19 269 263 218 273 257 250 255 244 240 247 255 256 256 260 271 284 289 289 288 293 298 302 307 308 307 306 305 304 308 309 308 307 307 308 309 311 312 313 313 313 311 310
15 232 285 314 51 302 218 278 246 286 296 271 275 274 249 245 246 249 247 249 259 273 286 290 292 292 293 297 305 312 313 311 305 305 309 308 307 310 310 310 313 315 316 317 317 316 315 315 313
303 328 297 250 332 337 271 269 288 302 298 280 277 260 250 251 255 257 250 250 259 270 280 286 295 298 294 297 306 311 313 309 309 312 313 313 315 316 317 319 320 320 319 319 317 317 316 314 315
297 273 275 264 12 335 282 284 296 306 324 339 334 285 258 254 257 250 244 244 251 265 279 290 298 297 298 300 303 309 317 318 320 319 320 321 322 323 323 321 321 320 320 321 322 321 318 316 318
226 293 291 288 314 5 337 297 277 251 246 344 340 8 322 234 234 242 232 240 250 262 277 290 294 291 294 300 309 317 319 319 318 318 319 321 322 322 322 321 320 320 321 321 320 318 317 316 313
233 262 335 269 324 204 319 297 332 347 52 15 6 6 33 319 265 248 231 244 256 269 276 281 280 286 294 303 311 313 313 316 321 323 323 324 324 323 320 320 320 321 319 318 316 315 314 312 313
330 116 303 305 21 288 18 279 312 334 264 224 247 54 47 74 171 224 240 251 259 264 267 270 276 288 298 308 313 316 320 322 322 323 325 325 324 323 325 325 323 322 323 322 322 318 311 305 304
247 270 278 85 83 12 357 76 267 322 262 234 208 192 146 179 205 234 253 255 258 259 261 267 278 291 300 306 311 316 319 322 323 323 323 323 325 328 330 328 329 329 330 329 325 324 322 319 313
333 19 27 62 92 16 274 87 281 237 218 199 198 207 207 210 210 243 265 264 258 258 264 276 287 294 301 309 316 320 321 323 324 324 324 326 328 330 331 330 331 332 330 330 330 329 326 321 317
25 41 346 359 8 236 236 28 247 261 246 225 226 212 214 206 225 269 274 267 264 268 277 287 294 303 311 317 319 322 324 325 325 325 326 327 329 331 331 329 329 328 330 330 330 328 327 326 321
12 98 140 254 275 283 10 236 249 222 267 250 246 219 214 210 260 281 277 271 271 279 287 296 308 312 317 320 322 323 324 324 325 325 326 328 329 328 325 324 323 326 330 330 329 326 325 322 318
343 48 128 100 73 22 266 282 291 271 271 250 235 226 219 227 264 285 279 274 277 284 293 305 312 317 320 319 320 322 325 326 328 328 327 328 327 324 318 318 320 325 329 327 326 326 324 322 318
118 155 39 11 333 290 286 275 238 290 273 252 249 238 227 233 262 287 277 273 274 288 304 313 315 315 316 320 324 327 328 330 329 328 328 326 324 320 315 316 319 322 325 324 324 325 327 320 316
39 30 33 122 146 211 289 264 216 237 227 251 248 247 241 237 268 289 278 269 276 297 309 312 313 314 319 325 328 328 330 329 328 326 326 325 323 320 315 316 317 319 321 321 321 323 326 319 317
290 181 162 121 279 232 158 269 237 256 248 266 276 270 241 250 275 286 264 264 273 297 307 308 310 317 325 327 328 330 329 328 327 327 327 326 325 321 316 316 316 317 318 318 318 319 322 322 327